,,,PA_Meas_PMT16A,,PR_Meas_QMR101_102,,RH_Meas_QMH101,,SR_Meas_QMS101,,TA_Meas_QMH101,,GenWind,,GenWind,
date,time,status,PA,status,PR,status,RH,status,SR,status,TA,status,DirAvg,status,SpdAvg,
2008-03-10, 00:00:04,VALID,1004.43,VALID,0,VALID,87.3965,VALID,0,VALID,25.2065,VALID,24,VALID,1.08906,
2008-03-10, 00:01:04,VALID,1004.41,VALID,0,VALID,87.3507,VALID,0,VALID,25.2046,VALID,25,VALID,0.452734,
2008-03-10, 00:02:04,VALID,1004.41,VALID,0,VALID,87.3049,VALID,0,VALID,25.1851,VALID,25,VALID,0.414844,
2008-03-10, 00:03:04,VALID,1004.41,VALID,0,VALID,87.4422,VALID,0,VALID,25.1656,VALID,34,VALID,0.653906,
2008-03-10, 00:04:04,VALID,1004.41,VALID,0,VALID,87.488,VALID,0,VALID,25.226,VALID,360,VALID,0.764453,
2008-03-10, 00:05:04,VALID,1004.37,VALID,0,VALID,87.3354,VALID,0,VALID,25.1851,VALID,1,VALID,0.382422,
2008-03-10, 00:06:04,VALID,1004.38,VALID,0,VALID,87.4117,VALID,0,VALID,25.2065,VALID,18,VALID,0.316406,
2008-03-10, 00:07:04,VALID,1004.4,VALID,0,VALID,87.5109,VALID,0,VALID,25.1675,VALID,18,VALID,0.289844,
2008-03-10, 00:08:04,VALID,1004.37,VALID,0,VALID,87.7855,VALID,0,VALID,25.1072,VALID,20,VALID,0.444922,
2008-03-10, 00:09:04,VALID,1004.35,VALID,0,VALID,87.6101,VALID,0,VALID,25.1091,VALID,25,VALID,0.333203,
2008-03-10, 00:10:04,VALID,1004.33,VALID,0,VALID,87.8237,VALID,0,VALID,25.0488,VALID,25,VALID,0.291016,
2008-03-10, 00:11:04,VALID,1004.35,VALID,0,VALID,87.9381,VALID,0,VALID,25.0293,VALID,25,VALID,0.244922,
2008-03-10, 00:12:04,VALID,1004.35,VALID,0,VALID,88.0678,VALID,0,VALID,24.9904,VALID,30,VALID,0.462109,
2008-03-10, 00:13:04,VALID,1004.38,VALID,0,VALID,88.3195,VALID,0,VALID,24.9709,VALID,34,VALID,0.489453,
2008-03-10, 00:14:04,VALID,1004.36,VALID,0,VALID,88.4416,VALID,0,VALID,24.893,VALID,34,VALID,0.197266,
2008-03-10, 00:15:04,VALID,1004.38,VALID,0,VALID,88.9833,VALID,0,VALID,24.8151,VALID,34,VALID,0.278125,
2008-03-10, 00:16:04,VALID,1004.33,VALID,0,VALID,89.2426,VALID,0,VALID,24.7177,VALID,34,VALID,0.261328,
2008-03-10, 00:17:04,VALID,1004.34,VALID,0,VALID,89.5249,VALID,0,VALID,24.6593,VALID,34,VALID,0.00195313,
2008-03-10, 00:18:04,VALID,1004.34,VALID,0,VALID,89.5249,VALID,0,VALID,24.5814,VALID,34,VALID,0.295703,
2008-03-10, 00:19:04,VALID,1004.35,VALID,0,VALID,90.1657,VALID,0,VALID,24.5425,VALID,34,VALID,0.520703,
2008-03-10, 00:20:04,VALID,1004.36,VALID,0,VALID,90.4404,VALID,0,VALID,24.5425,VALID,33,VALID,0.471484,
2008-03-10, 00:21:04,VALID,1004.36,VALID,0,VALID,90.4709,VALID,0,VALID,24.562,VALID,49,VALID,0.262891,
2008-03-10, 00:22:04,VALID,1004.33,VALID,0,VALID,90.4633,VALID,0,VALID,24.562,VALID,31,VALID,0.434766,
2008-03-10, 00:23:04,VALID,1004.29,VALID,0,VALID,90.3107,VALID,0,VALID,24.5638,VALID,37,VALID,0.431641,
2008-03-10, 00:24:04,VALID,1004.27,VALID,0,VALID,90.6082,VALID,0,VALID,24.5443,VALID,34,VALID,0.464063,
2008-03-10, 00:25:04,VALID,1004.31,VALID,0,VALID,90.4709,VALID,0,VALID,24.562,VALID,31,VALID,0.541797,
2008-03-10, 00:26:04,VALID,1004.29,VALID,0,VALID,90.6158,VALID,0,VALID,24.5814,VALID,25,VALID,0.528125,
2008-03-10, 00:27:04,VALID,1004.27,VALID,0,VALID,90.4938,VALID,0,VALID,24.6417,VALID,25,VALID,0.947656,
2008-03-10, 00:28:04,VALID,1004.28,VALID,0,VALID,90.2344,VALID,0,VALID,24.7975,VALID,16,VALID,0.75625,
2008-03-10, 00:29:04,VALID,1004.24,VALID,0,VALID,89.6012,VALID,0,VALID,24.8735,VALID,5,VALID,0.579687,
2008-03-10, 00:30:04,VALID,1004.24,VALID,0,VALID,89.4257,VALID,0,VALID,24.9533,VALID,20,VALID,0.914063,
2008-03-10, 00:31:04,VALID,1004.26,VALID,0,VALID,89.0138,VALID,0,VALID,25.0312,VALID,65,VALID,0.871875,
2008-03-10, 00:32:04,VALID,1004.29,VALID,0,VALID,88.64,VALID,0,VALID,25.0896,VALID,51,VALID,0.341797,
2008-03-10, 00:33:04,VALID,1004.27,VALID,0,VALID,88.3882,VALID,0,VALID,25.0877,VALID,57,VALID,0.464844,
2008-03-10, 00:34:04,VALID,1004.27,VALID,0,VALID,88.2967,VALID,0,VALID,25.0877,VALID,26,VALID,0.61875,
2008-03-10, 00:35:04,VALID,1004.23,VALID,0,VALID,88.3119,VALID,0,VALID,25.1267,VALID,32,VALID,0.379297,
2008-03-10, 00:36:04,VALID,1004.25,VALID,0,VALID,88.0831,VALID,0,VALID,25.1461,VALID,25,VALID,0.959375,
2008-03-10, 00:37:04,VALID,1004.28,VALID,0,VALID,87.8084,VALID,0,VALID,25.2046,VALID,41,VALID,0.35,
2008-03-10, 00:38:04,VALID,1004.28,VALID,0,VALID,87.6253,VALID,0,VALID,25.2844,VALID,53,VALID,0.482031,
2008-03-10, 00:39:04,VALID,1004.25,VALID,0,VALID,87.4956,VALID,0,VALID,25.3039,VALID,68,VALID,0.364062,
2008-03-10, 00:40:04,VALID,1004.28,VALID,0,VALID,87.343,VALID,0,VALID,25.3233,VALID,53,VALID,0.857813,
2008-03-10, 00:41:04,VALID,1004.27,VALID,0,VALID,87.1447,VALID,0,VALID,25.3623,VALID,30,VALID,0.443359,
2008-03-10, 00:42:04,VALID,1004.26,VALID,0,VALID,87.1371,VALID,0,VALID,25.3604,VALID,67,VALID,0.996094,
2008-03-10, 00:43:04,VALID,1004.23,VALID,0,VALID,86.3894,VALID,0,VALID,25.5551,VALID,94,VALID,0.827344,
2008-03-10, 00:44:04,VALID,1004.22,VALID,0,VALID,85.9241,VALID,0,VALID,25.5941,VALID,46,VALID,0.571875,
2008-03-10, 00:45:04,VALID,1004.2,VALID,0,VALID,85.9393,VALID,0,VALID,25.5941,VALID,23,VALID,1.14961,
2008-03-10, 00:46:04,VALID,1004.19,VALID,0,VALID,85.6647,VALID,0,VALID,25.633,VALID,47,VALID,1.15625,
2008-03-10, 00:47:04,VALID,1004.11,VALID,0,VALID,85.5808,VALID,0,VALID,25.6525,VALID,11,VALID,0.721875,
2008-03-10, 00:48:04,VALID,1004.12,VALID,0,VALID,85.5579,VALID,0,VALID,25.5941,VALID,44,VALID,0.446094,
2008-03-10, 00:49:04,VALID,1004.09,VALID,0,VALID,85.5426,VALID,0,VALID,25.5551,VALID,73,VALID,0.4125,
2008-03-10, 00:50:04,VALID,1004.07,VALID,0,VALID,85.4969,VALID,0,VALID,25.5357,VALID,84,VALID,0.464453,
2008-03-10, 00:51:04,VALID,1004.07,VALID,0,VALID,85.5808,VALID,0,VALID,25.5162,VALID,42,VALID,0.569531,
2008-03-10, 00:52:04,VALID,1004.02,VALID,0,VALID,85.7257,VALID,0,VALID,25.5162,VALID,41,VALID,0.314063,
2008-03-10, 00:53:04,VALID,1004,VALID,0,VALID,86.0156,VALID,0,VALID,25.4986,VALID,31,VALID,0.508984,
2008-03-10, 00:54:04,VALID,1003.98,VALID,0,VALID,85.8707,VALID,0,VALID,25.4577,VALID,40,VALID,0.632031,
2008-03-10, 00:55:04,VALID,1004.01,VALID,0,VALID,86.0385,VALID,0,VALID,25.4772,VALID,30,VALID,0.107031,
2008-03-10, 00:56:04,VALID,1004.03,VALID,0,VALID,86.1835,VALID,0,VALID,25.4383,VALID,44,VALID,0.391797,
2008-03-10, 00:57:04,VALID,1004.03,VALID,0,VALID,86.3513,VALID,0,VALID,25.3993,VALID,43,VALID,0.336719,
2008-03-10, 00:58:04,VALID,1004.02,VALID,0,VALID,85.8631,VALID,0,VALID,25.3604,VALID,67,VALID,1.0875,
2008-03-10, 00:59:04,VALID,1004,VALID,0,VALID,85.7868,VALID,0,VALID,25.4012,VALID,49,VALID,0.307031,
2008-03-10, 01:00:04,VALID,1003.99,VALID,0,VALID,85.6571,VALID,0,VALID,25.3993,VALID,26,VALID,0.533203,
2008-03-10, 01:01:04,VALID,1003.99,VALID,0,VALID,85.0773,VALID,0,VALID,25.4772,VALID,54,VALID,0.610156,
2008-03-10, 01:02:04,VALID,1003.94,VALID,0,VALID,85.0773,VALID,0,VALID,25.4967,VALID,36,VALID,0.264844,
2008-03-10, 01:03:04,VALID,1003.94,VALID,0,VALID,85.1917,VALID,0,VALID,25.4986,VALID,10,VALID,0.309375,
2008-03-10, 01:04:04,VALID,1003.93,VALID,0,VALID,85.0315,VALID,0,VALID,25.4986,VALID,358,VALID,0.63125,
2008-03-10, 01:05:04,VALID,1003.92,VALID,0,VALID,85.1002,VALID,0,VALID,25.4967,VALID,28,VALID,0.754297,
2008-03-10, 01:06:04,VALID,1003.94,VALID,0,VALID,85.3214,VALID,0,VALID,25.4577,VALID,42,VALID,0.975391,
2008-03-10, 01:07:04,VALID,1003.91,VALID,0,VALID,85.6647,VALID,0,VALID,25.3974,VALID,16,VALID,0.546875,
2008-03-10, 01:08:04,VALID,1003.92,VALID,0,VALID,85.4969,VALID,0,VALID,25.3604,VALID,6,VALID,0.767187,
2008-03-10, 01:09:04,VALID,1003.93,VALID,0,VALID,85.6647,VALID,0,VALID,25.3604,VALID,20,VALID,0.715234,
2008-03-10, 01:10:04,VALID,1003.89,VALID,0,VALID,85.6418,VALID,0,VALID,25.3214,VALID,346,VALID,0.885156,
2008-03-10, 01:11:04,VALID,1003.9,VALID,0,VALID,85.8402,VALID,0,VALID,25.3428,VALID,17,VALID,0.467187,
2008-03-10, 01:12:04,VALID,1003.9,VALID,0,VALID,85.68,VALID,0,VALID,25.2844,VALID,17,VALID,0.973828,
2008-03-10, 01:13:04,VALID,1003.89,VALID,0,VALID,85.4129,VALID,0,VALID,25.3019,VALID,23,VALID,0.565234,
2008-03-10, 01:14:04,VALID,1003.86,VALID,0,VALID,85.3824,VALID,0,VALID,25.3409,VALID,26,VALID,0.5125,
2008-03-10, 01:15:04,VALID,1003.88,VALID,0,VALID,85.1841,VALID,0,VALID,25.3409,VALID,18,VALID,0.652734,
2008-03-10, 01:16:04,VALID,1003.88,VALID,0,VALID,85.123,VALID,0,VALID,25.3409,VALID,20,VALID,0.692187,
2008-03-10, 01:17:04,VALID,1003.85,VALID,0,VALID,85.123,VALID,0,VALID,25.3409,VALID,21,VALID,0.737891,
2008-03-10, 01:18:04,VALID,1003.78,VALID,0,VALID,84.8713,VALID,0,VALID,25.3409,VALID,14,VALID,0.7125,
2008-03-10, 01:19:04,VALID,1003.76,VALID,0,VALID,85.1078,VALID,0,VALID,25.3604,VALID,56,VALID,0.379297,
2008-03-10, 01:20:04,VALID,1003.75,VALID,0,VALID,85.3443,VALID,0,VALID,25.3233,VALID,36,VALID,0.384375,
2008-03-10, 01:21:04,VALID,1003.75,VALID,0,VALID,85.68,VALID,0,VALID,25.2046,VALID,23,VALID,0.3,
2008-03-10, 01:22:04,VALID,1003.73,VALID,0,VALID,86.2064,VALID,0,VALID,25.0877,VALID,20,VALID,0.502344,
2008-03-10, 01:23:04,VALID,1003.73,VALID,0,VALID,86.7022,VALID,0,VALID,25.0098,VALID,22,VALID,0.422656,
2008-03-10, 01:24:04,VALID,1003.72,VALID,0,VALID,86.8777,VALID,0,VALID,24.9319,VALID,45,VALID,0.505469,
2008-03-10, 01:25:04,VALID,1003.72,VALID,0,VALID,86.748,VALID,0,VALID,24.893,VALID,13,VALID,0.778125,
2008-03-10, 01:26:04,VALID,1003.73,VALID,0,VALID,87.0074,VALID,0,VALID,24.9125,VALID,15,VALID,0.373828,
2008-03-10, 01:27:04,VALID,1003.74,VALID,0,VALID,87.2973,VALID,0,VALID,24.854,VALID,17,VALID,0.466406,
2008-03-10, 01:28:04,VALID,1003.77,VALID,0,VALID,87.5109,VALID,0,VALID,24.7567,VALID,39,VALID,0.568359,
2008-03-10, 01:29:04,VALID,1003.75,VALID,0,VALID,87.5872,VALID,0,VALID,24.7177,VALID,35,VALID,0.852344,
2008-03-10, 01:30:04,VALID,1003.76,VALID,0,VALID,87.6177,VALID,0,VALID,24.7196,VALID,27,VALID,0.496484,
2008-03-10, 01:31:04,VALID,1003.73,VALID,0,VALID,87.5414,VALID,0,VALID,24.7391,VALID,20,VALID,0.703906,
2008-03-10, 01:32:04,VALID,1003.73,VALID,0,VALID,87.7169,VALID,0,VALID,24.6983,VALID,12,VALID,0.626172,
2008-03-10, 01:33:04,VALID,1003.67,VALID,0,VALID,87.2668,VALID,0,VALID,24.7177,VALID,15,VALID,0.490625,
2008-03-10, 01:34:04,VALID,1003.7,VALID,0,VALID,87.16,VALID,0,VALID,24.7567,VALID,17,VALID,0.617969,
2008-03-10, 01:35:04,VALID,1003.7,VALID,0,VALID,87.3812,VALID,0,VALID,24.7372,VALID,9,VALID,0.428125,
2008-03-10, 01:36:04,VALID,1003.68,VALID,0,VALID,87.4346,VALID,0,VALID,24.7372,VALID,9,VALID,0.833203,
2008-03-10, 01:37:04,VALID,1003.71,VALID,0,VALID,86.7785,VALID,0,VALID,24.8151,VALID,24,VALID,1.19844,
2008-03-10, 01:38:04,VALID,1003.7,VALID,0,VALID,85.8478,VALID,0,VALID,24.9709,VALID,25,VALID,0.926953,
2008-03-10, 01:39:04,VALID,1003.72,VALID,0,VALID,85.2756,VALID,0,VALID,25.1091,VALID,23,VALID,0.699609,
2008-03-10, 01:40:04,VALID,1003.75,VALID,0,VALID,84.8942,VALID,0,VALID,25.1656,VALID,30,VALID,0.834766,
2008-03-10, 01:41:04,VALID,1003.76,VALID,0,VALID,84.6424,VALID,0,VALID,25.224,VALID,23,VALID,0.704687,
2008-03-10, 01:42:04,VALID,1003.77,VALID,0,VALID,84.528,VALID,0.100563,VALID,25.2435,VALID,37,VALID,0.735937,
2008-03-10, 01:43:04,VALID,1003.75,VALID,0,VALID,84.589,VALID,0,VALID,25.2454,VALID,36,VALID,0.506641,
2008-03-10, 01:44:04,VALID,1003.74,VALID,0,VALID,84.9247,VALID,0,VALID,25.148,VALID,24,VALID,0.69375,
2008-03-10, 01:45:04,VALID,1003.72,VALID,0,VALID,84.9476,VALID,0,VALID,25.1091,VALID,24,VALID,1.40586,
2008-03-10, 01:46:04,VALID,1003.7,VALID,0,VALID,85.1688,VALID,0,VALID,25.1267,VALID,9,VALID,0.501953,
2008-03-10, 01:47:04,VALID,1003.66,VALID,0,VALID,85.0315,VALID,0,VALID,25.0896,VALID,13,VALID,0.655859,
2008-03-10, 01:48:04,VALID,1003.7,VALID,0,VALID,85.062,VALID,0,VALID,25.0877,VALID,38,VALID,0.905469,
2008-03-10, 01:49:04,VALID,1003.7,VALID,0,VALID,84.9934,VALID,0,VALID,25.1072,VALID,16,VALID,0.558203,
2008-03-10, 01:50:04,VALID,1003.72,VALID,0,VALID,84.94,VALID,0,VALID,25.1267,VALID,23,VALID,0.725391,
2008-03-10, 01:51:04,VALID,1003.76,VALID,0,VALID,84.8789,VALID,0,VALID,25.1461,VALID,9,VALID,0.705859,
2008-03-10, 01:52:04,VALID,1003.71,VALID,0,VALID,84.9934,VALID,0,VALID,25.1286,VALID,3,VALID,0.238281,
2008-03-10, 01:53:04,VALID,1003.71,VALID,0,VALID,85.0315,VALID,0,VALID,25.1091,VALID,16,VALID,0.495313,
2008-03-10, 01:54:04,VALID,1003.68,VALID,0,VALID,84.7721,VALID,0,VALID,25.1286,VALID,10,VALID,0.658594,
2008-03-10, 01:55:04,VALID,1003.7,VALID,0,VALID,84.9094,VALID,0,VALID,25.1072,VALID,10,VALID,0.353906,
2008-03-10, 01:56:04,VALID,1003.68,VALID,0,VALID,84.5433,VALID,0,VALID,25.1461,VALID,19,VALID,1.28437,
2008-03-10, 01:57:04,VALID,1003.68,VALID,0,VALID,84.1618,VALID,0,VALID,25.263,VALID,32,VALID,0.461328,
2008-03-10, 01:58:04,VALID,1003.68,VALID,0,VALID,83.849,VALID,0.100563,VALID,25.3019,VALID,32,VALID,0.517969,
2008-03-10, 01:59:04,VALID,1003.67,VALID,0,VALID,83.8567,VALID,0,VALID,25.3019,VALID,32,VALID,0.171094,
2008-03-10, 02:00:04,VALID,1003.66,VALID,0,VALID,83.849,VALID,0,VALID,25.3019,VALID,7,VALID,0.248437,
2008-03-10, 02:01:04,VALID,1003.63,VALID,0,VALID,84.1466,VALID,0,VALID,25.263,VALID,35,VALID,0.326953,
2008-03-10, 02:02:04,VALID,1003.61,VALID,0,VALID,84.6882,VALID,0,VALID,25.1851,VALID,35,VALID,0.0394531,
2008-03-10, 02:03:04,VALID,1003.59,VALID,0,VALID,84.9857,VALID,0,VALID,25.0877,VALID,35,VALID,0.312109,
2008-03-10, 02:04:04,VALID,1003.58,VALID,0,VALID,85.4282,VALID,0,VALID,24.9904,VALID,46,VALID,0.096875,
2008-03-10, 02:05:04,VALID,1003.58,VALID,0,VALID,85.8325,VALID,0.100563,VALID,24.9125,VALID,46,VALID,0.164844,
2008-03-10, 02:06:04,VALID,1003.6,VALID,0,VALID,86.4962,VALID,0,VALID,24.7956,VALID,46,VALID,0.392578,
2008-03-10, 02:07:04,VALID,1003.55,VALID,0,VALID,86.8472,VALID,0,VALID,24.6593,VALID,54,VALID,0.451172,
2008-03-10, 02:08:04,VALID,1003.56,VALID,0,VALID,87.2668,VALID,0,VALID,24.6222,VALID,43,VALID,0.476563,
2008-03-10, 02:09:04,VALID,1003.54,VALID,0,VALID,87.4346,VALID,0,VALID,24.5406,VALID,46,VALID,0.361719,
2008-03-10, 02:10:04,VALID,1003.55,VALID,0,VALID,87.8466,VALID,0,VALID,24.5035,VALID,46,VALID,0.491797,
2008-03-10, 02:11:04,VALID,1003.57,VALID,0,VALID,88.1593,VALID,0,VALID,24.4451,VALID,47,VALID,0.219531,
2008-03-10, 02:12:04,VALID,1003.58,VALID,0,VALID,88.495,VALID,0,VALID,24.3265,VALID,46,VALID,0.303516,
2008-03-10, 02:13:04,VALID,1003.56,VALID,0,VALID,88.8307,VALID,0,VALID,24.2912,VALID,6,VALID,0.487891,
2008-03-10, 02:14:04,VALID,1003.59,VALID,0,VALID,89.1053,VALID,0,VALID,24.2291,VALID,22,VALID,0.197656,
2008-03-10, 02:15:04,VALID,1003.58,VALID,0,VALID,89.2732,VALID,0,VALID,24.231,VALID,22,VALID,0.318359,
2008-03-10, 02:16:04,VALID,1003.57,VALID,0,VALID,89.5631,VALID,0.100563,VALID,24.1726,VALID,22,VALID,0.389844,
2008-03-10, 02:17:04,VALID,1003.56,VALID,0,VALID,89.914,VALID,0,VALID,24.0965,VALID,22,VALID,0.250391,
2008-03-10, 02:18:04,VALID,1003.58,VALID,0,VALID,90.2954,VALID,0,VALID,24.0381,VALID,22,VALID,0.259375,
2008-03-10, 02:19:04,VALID,1003.54,VALID,0,VALID,90.4556,VALID,0.100563,VALID,23.9566,VALID,42,VALID,0.331641,
2008-03-10, 02:20:04,VALID,1003.54,VALID,0,VALID,90.6998,VALID,0.100563,VALID,23.9389,VALID,42,VALID,0.149609,
2008-03-10, 02:21:04,VALID,1003.46,VALID,0,VALID,90.8829,VALID,0,VALID,23.8611,VALID,56,VALID,0.239844,
2008-03-10, 02:22:04,VALID,1003.47,VALID,0,VALID,91.1117,VALID,0,VALID,23.8221,VALID,56,VALID,0.248047,
2008-03-10, 02:23:04,VALID,1003.49,VALID,0,VALID,91.3253,VALID,0,VALID,23.8027,VALID,53,VALID,0.322266,
2008-03-10, 02:24:04,VALID,1003.53,VALID,0,VALID,91.4703,VALID,0,VALID,23.7637,VALID,53,VALID,0.492578,
2008-03-10, 02:25:04,VALID,1003.54,VALID,0,VALID,91.8059,VALID,0,VALID,23.7443,VALID,52,VALID,0.508984,
2008-03-10, 02:26:04,VALID,1003.53,VALID,0,VALID,91.9814,VALID,0,VALID,23.7655,VALID,45,VALID,0.261719,
2008-03-10, 02:27:04,VALID,1003.51,VALID,0,VALID,92.0806,VALID,0,VALID,23.7248,VALID,68,VALID,0.716406,
2008-03-10, 02:28:04,VALID,1003.48,VALID,0,VALID,92.0958,VALID,0,VALID,23.7266,VALID,51,VALID,0.435547,
2008-03-10, 02:29:04,VALID,1003.45,VALID,0,VALID,92.2942,VALID,0,VALID,23.6841,VALID,51,VALID,0.366797,
2008-03-10, 02:30:04,VALID,1003.42,VALID,0,VALID,92.4391,VALID,0,VALID,23.7443,VALID,37,VALID,0.7875,
2008-03-10, 02:31:04,VALID,1003.39,VALID,0,VALID,92.2484,VALID,0,VALID,23.7637,VALID,45,VALID,0.404297,
2008-03-10, 02:32:04,VALID,1003.41,VALID,0,VALID,92.1721,VALID,0,VALID,23.7832,VALID,54,VALID,0.194531,
2008-03-10, 02:33:04,VALID,1003.4,VALID,0,VALID,92.073,VALID,0,VALID,23.8027,VALID,53,VALID,0.283984,
2008-03-10, 02:34:04,VALID,1003.41,VALID,0,VALID,92.0577,VALID,0.100563,VALID,23.7637,VALID,53,VALID,0.157422,
2008-03-10, 02:35:04,VALID,1003.39,VALID,0,VALID,92.1035,VALID,0,VALID,23.7443,VALID,53,VALID,0.369922,
2008-03-10, 02:36:04,VALID,1003.42,VALID,0,VALID,92.195,VALID,0,VALID,23.7637,VALID,62,VALID,0.409375,
2008-03-10, 02:37:04,VALID,1003.37,VALID,0,VALID,92.2637,VALID,0.100563,VALID,23.7637,VALID,62,VALID,0.344922,
2008-03-10, 02:38:04,VALID,1003.33,VALID,0,VALID,92.4239,VALID,0,VALID,23.7832,VALID,59,VALID,0.392969,
2008-03-10, 02:39:04,VALID,1003.29,VALID,0,VALID,92.3095,VALID,0,VALID,23.7832,VALID,57,VALID,0.341406,
2008-03-10, 02:40:04,VALID,1003.21,VALID,0,VALID,92.1416,VALID,0,VALID,23.7053,VALID,33,VALID,0.301562,
2008-03-10, 02:41:04,VALID,1003.15,VALID,0,VALID,92.5765,VALID,0,VALID,23.7053,VALID,1,VALID,1.03242,
2008-03-10, 02:42:04,VALID,1003.14,VALID,0,VALID,92.4239,VALID,0,VALID,23.8611,VALID,352,VALID,0.820313,
2008-03-10, 02:43:04,VALID,1003.13,VALID,0,VALID,92.0272,VALID,0,VALID,23.9195,VALID,5,VALID,0.878906,
2008-03-10, 02:44:04,VALID,1003.15,VALID,0,VALID,91.9051,VALID,0,VALID,23.8611,VALID,1,VALID,0.648828,
2008-03-10, 02:45:04,VALID,1003.18,VALID,0,VALID,92.0577,VALID,0.100563,VALID,23.8824,VALID,5,VALID,0.640234,
2008-03-10, 02:46:04,VALID,1003.17,VALID,0,VALID,92.073,VALID,0,VALID,23.8611,VALID,15,VALID,0.703125,
2008-03-10, 02:47:04,VALID,1003.18,VALID,0,VALID,91.722,VALID,0,VALID,23.9973,VALID,21,VALID,0.308203,
2008-03-10, 02:48:04,VALID,1003.14,VALID,0,VALID,91.2796,VALID,0,VALID,24.0752,VALID,26,VALID,0.337109,
2008-03-10, 02:49:04,VALID,1003.1,VALID,0,VALID,90.5548,VALID,0.100563,VALID,24.1531,VALID,350,VALID,0.731641,
2008-03-10, 02:50:04,VALID,1003.1,VALID,0,VALID,89.7309,VALID,0,VALID,24.3867,VALID,27,VALID,0.815234,
2008-03-10, 02:51:04,VALID,1003.09,VALID,0,VALID,88.5179,VALID,0,VALID,24.5425,VALID,29,VALID,0.909375,
2008-03-10, 02:52:04,VALID,1003.09,VALID,0,VALID,87.4499,VALID,0,VALID,24.854,VALID,28,VALID,0.797656,
2008-03-10, 02:53:04,VALID,1003.13,VALID,0,VALID,86.9311,VALID,0,VALID,24.9495,VALID,10,VALID,0.744922,
2008-03-10, 02:54:04,VALID,1003.11,VALID,0,VALID,86.5268,VALID,0.100563,VALID,24.9125,VALID,355,VALID,0.634375,
2008-03-10, 02:55:04,VALID,1003.1,VALID,0,VALID,86.7175,VALID,0,VALID,24.9514,VALID,7,VALID,0.357812,
2008-03-10, 02:56:04,VALID,1003.09,VALID,0,VALID,86.7633,VALID,0,VALID,24.9319,VALID,357,VALID,0.520312,
2008-03-10, 02:57:04,VALID,1003.1,VALID,0,VALID,86.9082,VALID,0,VALID,24.8754,VALID,357,VALID,0.440625,
2008-03-10, 02:58:04,VALID,1003.11,VALID,0,VALID,86.9921,VALID,0.100563,VALID,24.8346,VALID,357,VALID,0.269922,
2008-03-10, 02:59:04,VALID,1003.13,VALID,0,VALID,87.4575,VALID,0,VALID,24.8151,VALID,357,VALID,0.277734,
2008-03-10, 03:00:04,VALID,1003.1,VALID,0,VALID,87.6711,VALID,0,VALID,24.7567,VALID,357,VALID,0.046875,
2008-03-10, 03:01:04,VALID,1003.09,VALID,0,VALID,87.8618,VALID,0,VALID,24.6788,VALID,357,VALID,0.0015625,
2008-03-10, 03:02:04,VALID,1003.11,VALID,0,VALID,88.1822,VALID,0,VALID,24.6028,VALID,4,VALID,0.0507813,
2008-03-10, 03:03:04,VALID,1003.14,VALID,0,VALID,88.7086,VALID,0,VALID,24.562,VALID,4,VALID,0.241406,
2008-03-10, 03:04:04,VALID,1003.16,VALID,0,VALID,89.1969,VALID,0.100563,VALID,24.5035,VALID,4,VALID,0.3,
2008-03-10, 03:05:04,VALID,1003.17,VALID,0,VALID,89.7004,VALID,0,VALID,24.4451,VALID,4,VALID,0.233594,
2008-03-10, 03:06:04,VALID,1003.14,VALID,0,VALID,89.708,VALID,0,VALID,24.3673,VALID,50,VALID,0.0492188,
2008-03-10, 03:07:04,VALID,1003.16,VALID,0,VALID,89.7919,VALID,0,VALID,24.3302,VALID,50,VALID,0,
2008-03-10, 03:08:04,VALID,1003.1,VALID,0,VALID,90.036,VALID,0,VALID,24.2504,VALID,50,VALID,0,
2008-03-10, 03:09:04,VALID,1003.07,VALID,0,VALID,90.3107,VALID,0,VALID,24.192,VALID,50,VALID,0.437109,
2008-03-10, 03:10:04,VALID,1003.03,VALID,0,VALID,90.7837,VALID,0,VALID,24.1142,VALID,50,VALID,0.304297,
2008-03-10, 03:11:04,VALID,1002.99,VALID,0,VALID,91.0278,VALID,0,VALID,24.0363,VALID,29,VALID,0.523438,
2008-03-10, 03:12:04,VALID,1002.99,VALID,0,VALID,91.4092,VALID,0,VALID,23.9566,VALID,19,VALID,0.2625,
2008-03-10, 03:13:04,VALID,1003.01,VALID,0,VALID,91.7373,VALID,0.100563,VALID,23.9389,VALID,20,VALID,0.508984,
2008-03-10, 03:14:04,VALID,1003.05,VALID,0,VALID,92.1798,VALID,0,VALID,23.9,VALID,26,VALID,0.477734,
2008-03-10, 03:15:04,VALID,1003.07,VALID,0,VALID,92.3476,VALID,0,VALID,23.8805,VALID,26,VALID,0.350781,
2008-03-10, 03:16:04,VALID,1003.06,VALID,0,VALID,92.4773,VALID,0,VALID,23.8416,VALID,20,VALID,0.330859,
2008-03-10, 03:17:04,VALID,1003.07,VALID,0,VALID,92.6375,VALID,0,VALID,23.8629,VALID,20,VALID,0.117578,
2008-03-10, 03:18:04,VALID,1003.1,VALID,0,VALID,92.8206,VALID,0,VALID,23.8611,VALID,44,VALID,0.313281,
2008-03-10, 03:19:04,VALID,1003.09,VALID,0,VALID,92.546,VALID,0,VALID,23.9779,VALID,104,VALID,0.425391,
2008-03-10, 03:20:04,VALID,1003.11,VALID,0,VALID,92.195,VALID,0,VALID,24.0557,VALID,104,VALID,0.273047,
2008-03-10, 03:21:04,VALID,1003.13,VALID,0,VALID,91.8365,VALID,0,VALID,24.1142,VALID,103,VALID,0.217969,
2008-03-10, 03:22:04,VALID,1003.12,VALID,0,VALID,91.6381,VALID,0,VALID,24.1726,VALID,103,VALID,0.223828,
2008-03-10, 03:23:04,VALID,1003.14,VALID,0,VALID,91.394,VALID,0.100563,VALID,24.2115,VALID,103,VALID,0.324609,
2008-03-10, 03:24:04,VALID,1003.15,VALID,0,VALID,91.0888,VALID,0,VALID,24.2504,VALID,103,VALID,0.11875,
2008-03-10, 03:25:04,VALID,1003.15,VALID,0,VALID,91.0507,VALID,0,VALID,24.2699,VALID,103,VALID,0.15,
2008-03-10, 03:26:04,VALID,1003.17,VALID,0,VALID,90.9439,VALID,0,VALID,24.2504,VALID,103,VALID,0.0359375,
2008-03-10, 03:27:04,VALID,1003.19,VALID,0,VALID,91.1117,VALID,0,VALID,24.2328,VALID,103,VALID,0,
2008-03-10, 03:28:04,VALID,1003.19,VALID,0,VALID,91.3406,VALID,0,VALID,24.1939,VALID,103,VALID,0.0183594,
2008-03-10, 03:29:04,VALID,1003.19,VALID,0,VALID,91.394,VALID,0,VALID,24.1531,VALID,103,VALID,0,
2008-03-10, 03:30:04,VALID,1003.17,VALID,0,VALID,91.6229,VALID,0,VALID,24.1336,VALID,103,VALID,0.197266,
2008-03-10, 03:31:04,VALID,1003.15,VALID,0,VALID,91.7983,VALID,0,VALID,24.0947,VALID,103,VALID,0.101563,
2008-03-10, 03:32:04,VALID,1003.13,VALID,0,VALID,91.9356,VALID,0.100563,VALID,24.116,VALID,103,VALID,0.0992187,
2008-03-10, 03:33:04,VALID,1003.13,VALID,0,VALID,92.1187,VALID,0,VALID,24.0557,VALID,103,VALID,0.24375,
2008-03-10, 03:34:04,VALID,1003.12,VALID,0,VALID,92.2484,VALID,0,VALID,24.0168,VALID,103,VALID,0.150781,
2008-03-10, 03:35:04,VALID,1003.12,VALID,0,VALID,92.3552,VALID,0,VALID,23.9779,VALID,103,VALID,0.432422,
2008-03-10, 03:36:04,VALID,1003.12,VALID,0,VALID,92.6375,VALID,0,VALID,23.9584,VALID,103,VALID,0.15625,
2008-03-10, 03:37:04,VALID,1003.11,VALID,0,VALID,92.8053,VALID,0,VALID,23.9195,VALID,103,VALID,0,
2008-03-10, 03:38:04,VALID,1003.11,VALID,0,VALID,92.8664,VALID,0.100563,VALID,23.9195,VALID,103,VALID,0.174609,
2008-03-10, 03:39:04,VALID,1003.09,VALID,0,VALID,92.9884,VALID,0,VALID,23.9,VALID,103,VALID,0,
2008-03-10, 03:40:04,VALID,1003.14,VALID,0,VALID,93.0037,VALID,0,VALID,23.8787,VALID,103,VALID,0,
2008-03-10, 03:41:04,VALID,1003.13,VALID,0,VALID,92.9426,VALID,0,VALID,23.9,VALID,48,VALID,0.421484,
2008-03-10, 03:42:04,VALID,1003.16,VALID,0,VALID,92.9045,VALID,0,VALID,23.8416,VALID,48,VALID,0.0515625,
2008-03-10, 03:43:04,VALID,1003.19,VALID,0,VALID,92.9808,VALID,0.100563,VALID,23.8416,VALID,48,VALID,0.00585938,
2008-03-10, 03:44:04,VALID,1003.17,VALID,0,VALID,93.0876,VALID,0.100563,VALID,23.8221,VALID,48,VALID,0,
2008-03-10, 03:45:04,VALID,1003.2,VALID,0,VALID,93.1944,VALID,0,VALID,23.8027,VALID,48,VALID,0,
2008-03-10, 03:46:04,VALID,1003.18,VALID,0,VALID,93.2554,VALID,0,VALID,23.7637,VALID,48,VALID,0,